TimeMDT,TemperatureF,Dew PointF,Humidity,Sea Level PressureIn,VisibilityMPH,Wind Direction,Wind SpeedMPH,Gust SpeedMPH,PrecipitationIn,Events,Conditions,WindDirDegrees,DateUTC
12:15 AM,59.0,57.2,94,30.09,10.0,NNE,8.1,-,N/A,,Clear,20,2013-09-15 06:15:00
12:35 AM,59.0,57.2,94,30.09,10.0,North,4.6,-,N/A,,Partly Cloudy,350,2013-09-15 06:35:00
12:55 AM,59.0,57.2,94,30.09,10.0,NNE,6.9,-,N/A,,Partly Cloudy,20,2013-09-15 06:55:00
1:15 AM,59.0,57.2,94,30.09,10.0,North,4.6,-,N/A,,Clear,360,2013-09-15 07:15:00
1:35 AM,59.0,57.2,94,30.10,10.0,North,6.9,-,N/A,,Clear,10,2013-09-15 07:35:00
1:55 AM,59.0,57.2,94,30.10,10.0,NNE,6.9,-,N/A,,Clear,20,2013-09-15 07:55:00
2:15 AM,59.0,55.4,88,30.11,10.0,North,6.9,-,N/A,,Partly Cloudy,360,2013-09-15 08:15:00
2:35 AM,59.0,55.4,88,30.11,10.0,North,8.1,-,N/A,,Scattered Clouds,360,2013-09-15 08:35:00
2:55 AM,59.0,55.4,88,30.11,10.0,NNW,4.6,-,N/A,,Mostly Cloudy,340,2013-09-15 08:55:00
3:15 AM,59.0,55.4,88,30.12,10.0,North,4.6,-,N/A,,Partly Cloudy,360,2013-09-15 09:15:00
3:35 AM,59.0,55.4,88,30.12,10.0,North,4.6,-,N/A,,Mostly Cloudy,350,2013-09-15 09:35:00
3:55 AM,59.0,55.4,88,30.13,10.0,North,5.8,-,N/A,,Mostly Cloudy,350,2013-09-15 09:55:00
4:15 AM,59.0,55.4,88,30.14,10.0,NNW,4.6,-,N/A,,Mostly Cloudy,340,2013-09-15 10:15:00
4:35 AM,59.0,55.4,88,30.14,10.0,NNW,5.8,-,N/A,,Overcast,340,2013-09-15 10:35:00
4:55 AM,59.0,55.4,88,30.14,10.0,North,5.8,-,N/A,,Overcast,360,2013-09-15 10:55:00
5:15 AM,59.0,55.4,88,30.15,10.0,North,5.8,-,N/A,,Overcast,360,2013-09-15 11:15:00
5:35 AM,60.8,55.4,82,30.15,10.0,North,6.9,-,N/A,,Overcast,350,2013-09-15 11:35:00
5:55 AM,60.8,55.4,82,30.16,10.0,North,4.6,-,N/A,,Mostly Cloudy,350,2013-09-15 11:55:00
6:15 AM,60.8,55.4,82,30.16,10.0,North,6.9,-,N/A,,Overcast,360,2013-09-15 12:15:00
6:35 AM,60.8,55.4,82,30.17,10.0,North,5.8,-,N/A,,Overcast,350,2013-09-15 12:35:00
6:55 AM,60.8,55.4,82,30.18,10.0,North,9.2,-,N/A,,Overcast,350,2013-09-15 12:55:00
7:15 AM,59.0,55.4,88,30.19,6.0,NNW,8.1,-,0.01,,Overcast,340,2013-09-15 13:15:00
7:35 AM,59.0,55.4,88,30.19,7.0,NNW,9.2,-,0.05,,Overcast,330,2013-09-15 13:35:00
7:55 AM,57.2,55.4,94,30.20,7.0,NNW,10.4,-,0.12,,Overcast,330,2013-09-15 13:55:00
8:15 AM,57.2,55.4,94,30.21,8.0,North,10.4,-,0.14,,Overcast,10,2013-09-15 14:15:00
8:35 AM,57.2,55.4,94,30.21,5.0,NNE,10.4,-,0.30,,Overcast,30,2013-09-15 14:35:00
8:55 AM,57.2,55.4,94,30.22,10.0,North,12.7,-,0.38,,Overcast,10,2013-09-15 14:55:00
9:15 AM,57.2,55.4,94,30.24,5.0,NNE,11.5,-,0.01,,Overcast,30,2013-09-15 15:15:00
9:35 AM,57.2,55.4,94,30.25,5.0,NNE,15.0,19.6,0.02,,Overcast,30,2013-09-15 15:35:00
9:55 AM,57.2,53.6,88,30.25,5.0,NE,12.7,16.1,0.02,,Overcast,40,2013-09-15 15:55:00
10:15 AM,55.4,53.6,94,30.26,8.0,NNE,11.5,-,0.02,,Overcast,30,2013-09-15 16:15:00
10:35 AM,55.4,53.6,94,30.26,9.0,NNE,11.5,17.3,0.05,,Overcast,30,2013-09-15 16:35:00
10:55 AM,55.4,53.6,94,30.27,10.0,NNE,9.2,-,0.10,,Overcast,30,2013-09-15 16:55:00
11:15 AM,55.4,53.6,94,30.28,10.0,North,8.1,-,0.06,,Overcast,10,2013-09-15 17:15:00
11:35 AM,55.4,53.6,94,30.29,10.0,NE,9.2,-,0.11,,Overcast,40,2013-09-15 17:35:00
11:55 AM,55.4,53.6,94,30.29,10.0,NE,9.2,-,0.13,,Overcast,40,2013-09-15 17:55:00
12:15 PM,55.4,53.6,94,30.29,10.0,NE,8.1,-,N/A,,Overcast,40,2013-09-15 18:15:00
12:35 PM,55.4,53.6,94,30.30,10.0,NE,8.1,-,0.01,,Overcast,40,2013-09-15 18:35:00
12:55 PM,57.2,53.6,88,30.30,10.0,NE,8.1,-,0.01,,Overcast,50,2013-09-15 18:55:00
1:15 PM,57.2,55.4,94,30.30,9.0,NNE,6.9,-,0.02,,Overcast,30,2013-09-15 19:15:00
1:55 PM,57.2,55.4,94,30.31,9.0,NE,6.9,-,0.07,,Overcast,40,2013-09-15 19:55:00
2:15 PM,57.2,55.4,94,30.31,4.0,NE,9.2,-,0.03,,Overcast,50,2013-09-15 20:15:00
2:35 PM,55.4,53.6,94,30.31,4.0,East,10.4,-,0.10,,Overcast,80,2013-09-15 20:35:00
2:55 PM,55.4,53.6,94,30.30,8.0,East,9.2,-,0.11,,Overcast,80,2013-09-15 20:55:00
3:15 PM,55.4,55.4,100,30.30,10.0,East,9.2,-,0.01,,Overcast,80,2013-09-15 21:15:00
3:35 PM,57.2,55.4,94,30.30,10.0,ENE,8.1,-,0.01,,Overcast,60,2013-09-15 21:35:00
3:55 PM,57.2,55.4,94,30.30,10.0,East,9.2,-,0.02,,Mostly Cloudy,80,2013-09-15 21:55:00
4:15 PM,57.2,55.4,94,30.30,10.0,ENE,9.2,-,N/A,,Overcast,70,2013-09-15 22:15:00
4:35 PM,57.2,53.6,88,30.30,10.0,ENE,10.4,-,N/A,,Overcast,70,2013-09-15 22:35:00
4:55 PM,57.2,55.4,94,30.30,10.0,ENE,8.1,-,N/A,,Overcast,70,2013-09-15 22:55:00
5:15 PM,57.2,55.4,94,30.30,10.0,East,8.1,-,N/A,,Overcast,80,2013-09-15 23:15:00
5:35 PM,57.2,53.6,88,30.30,10.0,ENE,6.9,-,N/A,,Overcast,70,2013-09-15 23:35:00
5:55 PM,57.2,53.6,88,30.31,10.0,ENE,6.9,-,N/A,,Overcast,60,2013-09-15 23:55:00
6:15 PM,57.2,53.6,88,30.31,10.0,East,9.2,-,N/A,,Overcast,80,2013-09-16 00:15:00
6:35 PM,57.2,53.6,88,30.31,6.0,ESE,6.9,-,N/A,,Mostly Cloudy,110,2013-09-16 00:35:00
6:55 PM,55.4,53.6,94,30.31,8.0,ESE,8.1,-,N/A,,Overcast,120,2013-09-16 00:55:00
7:15 PM,55.4,53.6,94,30.30,9.0,SE,8.1,-,N/A,,Overcast,130,2013-09-16 01:15:00
7:35 PM,55.4,53.6,94,30.31,10.0,SE,8.1,-,N/A,,Overcast,140,2013-09-16 01:35:00
7:55 PM,55.4,53.6,94,30.32,10.0,SE,8.1,-,N/A,,Overcast,140,2013-09-16 01:55:00
8:15 PM,55.4,53.6,94,30.32,10.0,SE,8.1,-,N/A,,Overcast,140,2013-09-16 02:15:00
8:55 PM,55.4,51.8,88,30.33,10.0,SSE,6.9,-,N/A,,Overcast,160,2013-09-16 02:55:00
9:15 PM,55.4,51.8,88,30.33,10.0,SSE,8.1,-,N/A,,Overcast,160,2013-09-16 03:15:00
9:35 PM,55.4,53.6,94,30.33,10.0,SE,5.8,-,N/A,,Overcast,140,2013-09-16 03:35:00
10:15 PM,55.4,51.8,88,30.33,10.0,SE,4.6,-,N/A,,Overcast,140,2013-09-16 04:15:00
10:35 PM,55.4,51.8,88,30.33,10.0,Calm,Calm,-,N/A,,Overcast,0,2013-09-16 04:35:00
10:55 PM,55.4,51.8,88,30.33,10.0,Calm,Calm,-,N/A,,Overcast,0,2013-09-16 04:55:00
11:15 PM,55.4,51.8,88,30.33,10.0,SE,4.6,-,N/A,,Overcast,140,2013-09-16 05:15:00
11:35 PM,55.4,51.8,88,30.32,10.0,ESE,4.6,-,N/A,,Overcast,120,2013-09-16 05:35:00
11:55 PM,53.6,51.8,94,30.32,10.0,SE,4.6,-,N/A,,Overcast,140,2013-09-16 05:55:00